Wind_Speed
3 3 3 4 4 5 6 7 7 7 8 9 9 9 10 10 11 11 11 12 12 12 12 11 11 11 11 10 10 10 10 9 9 8 7 7 7 6 6 6 6 7 7
2 2 1 1 2 3 4 4 5 5 6 7 7 8 8 8 9 9 10 10 11 11 11 11 10 10 9 9 9 9 9 9 8 7 6 6 6 6 5 5 5 5 5
3 3 2 2 2 3 3 4 4 5 5 6 6 6 7 7 8 8 8 9 9 10 10 10 10 9 8 8 8 8 8 8 8 7 6 5 5 4 4 4 3 3 3
4 4 4 4 4 4 4 4 4 4 5 5 6 6 7 8 8 8 8 8 8 9 9 10 10 9 8 7 7 7 7 7 7 6 6 5 4 3 3 2 2 2 2
5 5 5 5 5 5 5 4 4 5 5 6 7 7 8 9 9 9 9 8 8 9 9 9 9 9 9 8 7 7 6 6 6 6 6 5 5 4 2 2 1 0 1
7 7 7 7 7 6 6 6 6 6 7 8 9 9 10 10 10 10 10 10 10 10 10 10 9 9 9 9 8 8 7 6 6 7 7 6 5 5 4 4 3 3 2
8 8 8 8 7 7 7 8 9 9 10 11 12 12 13 13 12 12 12 12 12 12 12 12 11 11 11 11 10 10 9 8 7 7 9 8 6 6 5 5 5 5 5
9 9 9 9 9 9 10 11 12 13 14 14 15 15 15 15 15 15 15 15 15 15 15 14 14 14 14 14 13 13 12 12 11 10 10 10 8 8 8 7 7 7 7
10 10 11 11 12 13 14 14 15 16 16 17 17 18 18 18 18 18 18 18 18 18 18 18 17 17 17 17 17 16 16 16 15 14 13 13 11 10 10 10 10 9 9
12 13 14 14 15 16 16 17 17 17 18 18 19 19 20 20 20 21 21 21 21 21 21 21 20 20 20 20 20 20 19 20 19 18 17 17 16 14 13 12 12 12 11
14 15 16 17 18 18 18 19 19 19 19 20 20 20 21 22 22 22 23 23 23 23 23 23 22 22 23 23 22 22 22 22 21 21 21 20 20 18 18 16 15 14 14
17 18 19 20 20 20 20 21 21 21 21 21 21 22 22 22 23 23 23 24 24 23 24 23 23 23 24 23 23 23 22 22 21 22 22 22 22 22 21 20 18 17 16
23 24 24 23 23 23 24 24 24 23 23 22 23 22 22 23 24 24 24 24 25 24 24 24 24 23 24 24 23 23 22 22 23 23 23 23 24 24 24 22 21 20 19
27 28 28 27 27 28 28 28 27 26 26 25 24 24 23 24 24 24 24 24 25 25 25 25 24 23 23 23 22 22 21 22 23 22 24 24 25 26 26 25 24 23 22
30 30 31 30 31 32 31 31 29 28 27 26 25 24 24 24 24 24 24 24 24 24 24 24 24 23 23 23 22 22 22 22 21 21 21 22 23 25 26 25 24 24 24
34 33 35 36 35 35 34 30 29 29 29 28 26 25 25 25 25 24 24 24 24 24 23 23 23 23 22 21 21 21 21 20 20 20 21 22 22 23 24 26 26 26 25
39 39 40 41 39 36 36 32 30 29 29 28 26 25 25 25 25 25 24 23 23 23 22 22 21 21 20 19 18 18 18 18 18 19 19 20 21 22 23 25 27 27 27
42 45 44 44 41 38 37 35 28 28 28 27 26 24 24 24 25 24 23 23 22 22 22 21 20 19 18 16 15 15 15 16 16 16 17 18 19 20 22 24 26 27 28
43 44 45 45 41 38 36 32 28 28 27 25 23 21 22 23 23 23 23 23 23 22 21 20 19 18 17 15 14 14 13 14 15 16 16 17 18 20 21 23 25 27 28
45 46 47 45 42 40 38 29 27 26 24 23 22 23 23 22 22 22 22 23 22 22 21 19 18 18 17 16 15 14 14 14 15 16 17 18 19 20 21 23 25 26 28
46 47 45 45 41 37 34 27 22 22 22 21 21 22 22 23 23 23 23 23 23 22 21 20 19 19 18 17 16 16 16 15 15 16 17 18 20 21 22 22 24 26 28
44 44 43 42 39 35 33 25 21 21 21 21 21 21 23 24 25 25 25 24 23 23 22 21 21 21 20 19 18 18 18 18 17 18 18 20 21 22 23 24 25 26 28
42 41 41 39 37 35 31 27 25 24 22 21 21 21 22 24 25 26 25 25 25 25 24 23 23 23 23 22 21 20 20 19 20 21 21 21 22 23 23 24 25 26 28
40 40 39 37 36 34 32 29 27 27 25 23 23 23 23 24 24 25 26 26 26 26 26 26 25 25 25 25 24 23 22 21 21 22 24 24 23 24 24 25 26 26 28
38 39 39 37 36 35 33 32 31 29 28 27 27 26 25 25 24 25 26 26 26 28 28 28 28 27 27 27 26 25 25 24 23 22 23 26 26 26 25 25 25 26 27
40 42 41 40 38 37 37 35 34 33 33 32 32 32 31 30 29 29 28 28 29 30 31 31 31 30 29 29 28 28 27 27 26 25 24 25 27 28 27 26 25 25 26
Wind_Direction
127 108 83 71 62 55 50 44 33 25 19 16 15 14 16 18 18 18 19 19 20 22 24 25 27 30 31 33 37 41 45 49 53 55 57 60 63 67 72 79 85 91 95
166 166 126 46 32 26 26 23 16 11 6 5 5 4 4 4 5 6 6 8 11 13 15 16 16 19 21 24 26 29 34 38 42 47 52 57 61 64 65 71 81 90 94
209 214 238 277 307 327 339 345 346 346 347 348 350 350 348 346 346 348 349 351 355 359 2 3 3 5 10 14 17 19 22 25 28 31 36 42 46 56 61 61 70 86 96
230 239 253 268 280 290 300 309 314 319 322 325 328 328 328 327 325 326 329 333 337 342 345 348 349 349 353 359 4 9 10 9 9 11 17 22 22 26 43 49 57 76 96
240 250 261 269 273 277 282 286 290 295 301 305 308 311 312 312 311 310 311 315 319 324 328 332 335 337 339 342 346 351 358 359 355 350 351 357 358 357 349 335 325 357 120
256 259 267 271 270 269 271 275 279 284 290 293 296 297 298 299 298 297 296 297 301 305 310 315 318 321 323 327 331 335 337 342 340 333 328 330 328 330 327 304 282 268 255
268 268 273 273 270 269 274 278 280 282 284 286 287 288 289 289 288 287 286 287 290 293 296 300 301 303 306 308 312 316 320 322 323 319 314 315 308 303 300 293 282 269 260
272 274 276 276 276 278 280 281 281 281 281 282 283 283 283 283 282 281 280 281 283 285 287 289 290 291 292 295 298 301 303 305 307 304 303 302 297 286 281 279 277 271 263
275 277 280 282 284 285 285 285 283 282 282 282 281 281 281 280 279 278 278 278 279 281 282 282 283 284 285 286 288 290 292 294 294 294 291 290 288 281 276 273 268 265 262
276 280 283 287 288 288 288 287 285 283 282 281 281 280 279 279 278 277 277 278 278 279 279 280 281 281 282 282 283 284 285 288 287 286 284 281 279 276 272 270 265 260 258
277 282 286 289 290 289 288 287 286 285 284 282 281 279 278 277 277 277 278 278 278 279 279 279 280 281 281 282 282 282 282 284 284 282 280 275 273 272 269 266 262 258 253
281 283 284 286 287 288 288 288 287 287 286 285 283 281 279 278 278 278 278 278 278 278 279 279 279 279 279 280 282 281 279 281 283 282 278 273 270 269 266 262 258 255 251
281 281 281 281 283 284 286 286 288 289 290 289 287 284 282 280 278 277 278 278 278 278 278 279 279 278 278 279 279 279 278 278 280 281 275 271 268 266 264 260 255 251 249
283 279 276 276 279 282 285 286 287 289 291 291 290 287 284 282 279 279 278 278 277 277 278 279 278 278 277 276 277 277 277 278 280 278 278 273 269 266 263 256 254 250 246
286 281 279 276 277 279 281 280 281 284 287 289 288 286 283 279 279 281 279 277 275 274 275 275 274 274 275 276 276 275 275 276 277 277 278 276 272 269 261 255 252 247 245
288 282 278 276 272 271 272 268 274 279 282 283 281 279 277 276 276 276 275 275 274 272 271 269 269 270 271 272 272 272 273 274 275 276 275 276 276 273 265 259 258 251 245
292 287 281 275 271 267 266 263 266 270 275 276 274 273 274 275 276 276 276 276 274 272 270 268 266 266 267 268 269 270 273 275 277 278 277 277 276 272 269 267 262 254 249
294 292 284 275 269 273 273 272 267 270 270 274 272 270 271 274 277 277 278 277 275 271 269 267 265 264 264 265 267 271 275 280 282 283 283 282 280 276 272 268 261 256 252
296 296 291 285 281 282 279 271 272 270 272 274 276 274 275 279 277 277 276 274 272 269 267 264 261 259 259 261 265 270 276 281 286 288 289 289 288 285 278 271 264 259 254
298 299 297 295 295 291 287 282 276 266 271 271 278 279 283 284 282 278 274 270 268 265 262 260 258 256 255 257 261 267 274 281 287 291 293 296 295 291 286 278 270 263 258
299 300 301 298 298 297 298 286 278 277 279 280 281 282 283 286 283 277 273 268 264 261 258 256 256 255 254 255 259 265 272 279 286 291 295 298 297 294 289 283 274 266 261
301 304 302 303 301 303 303 297 290 291 291 285 286 284 282 282 281 276 272 265 260 257 254 252 253 255 255 256 259 265 272 279 284 289 295 298 299 297 293 286 279 270 263
300 304 304 306 305 305 308 306 300 295 291 290 288 288 284 281 277 272 267 262 257 254 253 252 254 255 256 257 258 263 269 275 283 289 294 297 299 299 295 289 282 275 267
297 300 303 305 306 306 306 303 298 293 292 290 290 286 281 280 277 269 264 260 257 253 252 253 254 256 258 260 261 262 266 270 276 286 293 297 299 299 296 291 284 277 271
296 300 302 303 304 304 303 301 298 293 290 287 285 283 279 277 275 270 264 260 258 255 253 254 254 256 258 261 263 266 268 271 274 279 287 295 299 300 298 294 287 279 272
296 299 301 302 303 301 299 297 294 290 288 285 282 279 276 273 271 270 265 259 257 256 255 256 256 257 258 260 263 266 270 273 277 279 283 289 296 299 300 297 292 281 273
Height
5922 5921 5920 5920 5919 5919 5918 5918 5918 5917 5917 5916 5915 5914 5913 5912 5911 5909 5908 5907 5905 5904 5902 5901 5900 5899 5898 5897 5896 5896 5895 5894 5893 5892 5892 5892 5891 5891 5891 5890 5890 5891 5891
5922 5921 5921 5920 5920 5919 5918 5918 5918 5917 5917 5916 5915 5914 5913 5912 5911 5909 5908 5907 5905 5904 5903 5901 5900 5899 5898 5897 5896 5896 5895 5894 5894 5893 5893 5892 5891 5891 5891 5891 5891 5891 5891
5922 5921 5921 5920 5920 5919 5918 5918 5918 5917 5916 5915 5914 5913 5912 5911 5910 5909 5907 5906 5905 5904 5902 5901 5900 5899 5898 5897 5896 5896 5895 5894 5893 5893 5892 5892 5891 5891 5891 5891 5891 5891 5891
5922 5921 5920 5920 5919 5919 5918 5917 5917 5916 5915 5914 5913 5912 5911 5910 5909 5908 5907 5905 5904 5903 5902 5901 5899 5898 5897 5897 5896 5895 5894 5893 5893 5892 5892 5891 5891 5891 5891 5891 5891 5891 5891
5922 5921 5920 5919 5919 5918 5917 5916 5916 5915 5914 5913 5912 5911 5910 5909 5908 5907 5905 5904 5903 5902 5901 5900 5898 5897 5896 5896 5895 5894 5894 5893 5892 5891 5891 5891 5890 5890 5890 5890 5891 5891 5891
5921 5920 5919 5919 5918 5917 5916 5915 5914 5914 5913 5911 5910 5909 5908 5907 5906 5905 5904 5903 5902 5901 5899 5898 5897 5896 5895 5894 5894 5893 5893 5892 5891 5890 5889 5890 5889 5889 5889 5889 5890 5890 5890
5920 5919 5918 5918 5917 5916 5915 5914 5913 5912 5910 5909 5908 5907 5905 5904 5904 5903 5901 5901 5900 5899 5898 5897 5896 5895 5894 5893 5892 5892 5891 5891 5891 5890 5888 5888 5888 5888 5888 5888 5888 5888 5889
5918 5918 5917 5916 5916 5915 5913 5912 5911 5909 5908 5906 5905 5903 5902 5901 5900 5899 5898 5898 5897 5896 5895 5894 5893 5893 5892 5891 5890 5890 5889 5889 5888 5888 5887 5886 5886 5886 5886 5886 5886 5886 5887
5917 5917 5916 5915 5914 5912 5911 5909 5907 5906 5904 5902 5901 5900 5898 5897 5896 5895 5894 5894 5893 5892 5891 5891 5890 5890 5889 5888 5887 5887 5886 5885 5885 5885 5884 5884 5884 5883 5883 5883 5884 5884 5884
5915 5915 5914 5912 5911 5909 5907 5905 5903 5901 5900 5898 5897 5895 5894 5893 5891 5891 5890 5889 5888 5888 5887 5886 5886 5885 5884 5884 5883 5883 5882 5882 5881 5881 5881 5880 5880 5880 5880 5880 5880 5881 5881
5913 5912 5911 5909 5907 5905 5903 5901 5899 5897 5895 5893 5891 5890 5888 5887 5886 5885 5884 5884 5883 5882 5882 5881 5881 5880 5879 5879 5878 5878 5877 5877 5876 5876 5876 5875 5875 5876 5876 5876 5877 5877 5878
5910 5909 5907 5905 5903 5901 5898 5896 5894 5892 5890 5888 5886 5884 5883 5881 5880 5879 5878 5878 5877 5877 5876 5876 5875 5875 5874 5873 5873 5873 5872 5872 5871 5870 5870 5870 5870 5870 5871 5871 5872 5873 5873
5907 5905 5902 5899 5897 5894 5892 5890 5888 5886 5884 5882 5880 5878 5877 5875 5874 5873 5872 5872 5871 5870 5870 5870 5870 5869 5869 5868 5868 5867 5867 5866 5865 5865 5864 5864 5864 5864 5865 5865 5866 5867 5869
5901 5899 5895 5891 5890 5887 5885 5883 5881 5880 5878 5876 5874 5872 5870 5869 5868 5867 5866 5866 5865 5864 5864 5864 5864 5863 5863 5862 5862 5862 5861 5860 5860 5859 5858 5858 5858 5858 5858 5858 5859 5861 5863
5894 5891 5888 5883 5881 5878 5875 5873 5873 5873 5871 5869 5868 5866 5864 5862 5861 5860 5860 5860 5859 5859 5858 5858 5857 5857 5857 5857 5856 5856 5856 5855 5854 5854 5853 5852 5852 5852 5851 5851 5851 5854 5856
5885 5883 5880 5875 5869 5866 5863 5861 5863 5863 5863 5862 5861 5858 5857 5856 5855 5854 5853 5853 5852 5852 5852 5852 5852 5852 5852 5851 5851 5851 5850 5850 5849 5849 5848 5847 5846 5846 5846 5846 5846 5848 5849
5878 5875 5871 5865 5859 5855 5854 5849 5850 5852 5853 5853 5851 5850 5849 5848 5848 5847 5846 5845 5845 5845 5845 5845 5846 5846 5846 5846 5846 5845 5845 5844 5844 5843 5843 5842 5841 5840 5840 5840 5841 5842 5843
5870 5866 5861 5853 5846 5846 5844 5839 5839 5842 5842 5843 5842 5841 5840 5840 5841 5840 5839 5839 5838 5838 5839 5839 5839 5840 5840 5841 5841 5841 5840 5839 5838 5838 5837 5837 5836 5835 5834 5834 5835 5835 5836
5862 5858 5851 5845 5839 5835 5834 5832 5832 5833 5835 5835 5834 5833 5833 5834 5835 5835 5833 5833 5833 5833 5833 5833 5833 5834 5835 5836 5836 5836 5835 5834 5833 5832 5832 5831 5830 5830 5829 5828 5828 5828 5829
5856 5850 5844 5837 5833 5827 5826 5825 5825 5826 5827 5827 5827 5827 5828 5828 5828 5828 5828 5827 5827 5827 5827 5827 5828 5829 5830 5831 5831 5831 5831 5830 5829 5827 5826 5825 5824 5823 5822 5822 5821 5821 5822
5849 5843 5837 5831 5827 5821 5821 5821 5820 5820 5821 5821 5822 5822 5821 5821 5821 5821 5821 5821 5821 5821 5822 5822 5823 5824 5825 5826 5826 5826 5826 5825 5824 5823 5821 5819 5818 5817 5816 5815 5815 5815 5815
5841 5835 5831 5825 5822 5819 5818 5815 5814 5816 5816 5816 5817 5816 5816 5815 5815 5815 5815 5815 5815 5816 5816 5817 5817 5818 5819 5820 5821 5821 5821 5820 5819 5818 5816 5814 5812 5810 5809 5808 5807 5807 5807
5836 5832 5827 5822 5819 5817 5814 5812 5811 5811 5811 5811 5811 5811 5810 5809 5808 5808 5808 5808 5808 5809 5810 5810 5811 5812 5813 5814 5815 5815 5815 5815 5814 5812 5810 5808 5806 5804 5802 5800 5800 5799 5799
5829 5825 5821 5818 5815 5811 5809 5807 5806 5805 5805 5805 5804 5804 5804 5802 5801 5801 5800 5800 5801 5801 5802 5803 5804 5805 5806 5807 5807 5808 5809 5809 5809 5807 5804 5802 5800 5797 5795 5793 5792 5792 5792
5821 5818 5814 5811 5808 5805 5803 5801 5799 5798 5797 5797 5796 5796 5796 5795 5794 5793 5792 5792 5793 5793 5794 5795 5796 5796 5798 5799 5799 5800 5800 5801 5802 5802 5800 5796 5793 5791 5789 5787 5785 5784 5784
5813 5809 5806 5802 5800 5797 5795 5793 5791 5789 5788 5787 5787 5787 5787 5786 5785 5785 5784 5784 5784 5784 5785 5785 5786 5788 5789 5790 5791 5791 5792 5793 5793 5794 5794 5791 5788 5784 5781 5780 5778 5777 5776